Location: Highridge
(54.0333°N, 114.1333°W)
Time: 13:31:07
(UTC+00:00)

Oscar 19 - Pass Details

Date: 02 December 2023
Orbit: 771 x 789 km, 98.9° (Epoch: 01 March)

Event Time Altitude Azimuth Distance (km) Brightness Sun altitude
Rises 11:56:47 0° 20° (NNE) 3,271 14.2 -30.6°
Reaches altitude 10° 11:59:13 10° 27° (NNE) 2,341 13.4 -30.2°
Maximum altitude 12:04:07 43° 99° (E) 1,094 11.7 -29.5°
Drops below altitude 10° 12:09:01 10° 170° (S) 2,336 13.2 -28.8°
Sets 12:11:27 0° 177° (S) 3,262 13.9 -28.5°
